STARLINK-5224, 55397

Orbit data source: Space-Track

STARLINK-5224, 55397 is a payload satellite owned by SpaceX/Seattle (US) in LEO that was launched on Tue, 31 Jan 2023 UTC via an FALCON 9 launch vehicle from the Air Force Western Test Range (AFWTR). Payload-class satellites include a variety of spacecraft equipped with specific instruments for various scientific and technological missions. These include communications satellites like Starlink; space stations such as the ISS; scientific satellites like the Hubble; Earth observation satellites from companies like Planet Labs, Umbra, and HawkEye 360; GPS; miniature CubeSats for education and research; and military/defense satellites.

Loading next visibility...
Identifier
55397, 2023-014G
Orbit
LEO
Country
Flag of USUS
Related business
Manufacturer
SpaceX/Seattle
Mission
Operational Commercial Communications
Bus & Motor
STARLINK, Unknown motor
Mass
305 kg wet, ~290 kg dry
Launch date (UTC)
2023-01-31 (3 years ago)
Launch vehicle
FALCON 9
Launch site
Air Force Western Test Range (AFWTR)
Object type
Payload
Rocket body
Debris
Shape & HBR
Box + 1 Pan, 10.1 m
Radar Cross Section
13.562 m², Large (>1 m²)

Expand to show TLE details & history
Last TLE update: 2 days ago

TLE from 2 days ago
0 STARLINK-5224
1 55397U 23014G   26171.36077544  .00001451  00000-0  12934-3 0  9995
2 55397  69.9995 145.7366 0003429 266.6632  93.4135 14.98343207187922
Epoch: 2026-06-20T08:39Z
TLE epoch observation values (Epoch: 2026-06-20T08:39:30.998Z)
Latitude
0.00002°
Longitude
107.28094°
Altitude
574.582 km
Speed
7.574 km/s
True Right ascension
09h 42m 56s
True Declination
0° 00' 00"
Sunlit
Object was in daylight at epoch
Visualization orbit readout
Latitude
Unknown
Longitude
Unknown
Altitude
Unknown
Speed
Unknown
Apparent Right ascension
Unknown
Apparent Declination
Unknown
Sunlit
N/A
Visualization observer readout
Local Sidereal Time
21:25:12
Azimuth
Unknown
Elevation
Unknown
Doppler factor
Unknown
Orbital elements
Apogee altitude
572.346 km
Perigee altitude
567.581 km
Semi-major axis
6,948.1 km
Eccentricity
0.00034
Inclination
69.9995°
RAAN
145.7366°
Arg. of periapsis
266.6632°
True anomaly
93.45272°
Mean anomaly
93.4135°
Eccentric anomaly
93.43311°
Mean motion
3.74752 °/min
Orbital period
96.06 mins
BSTAR
0.00012934
Loading maneuver chart data...
Computing Atmospheric mass density...

Documentation

Showing up to 5 results
|